timestamp,wind_dir_avg,wind_spd_avg,wind_spd_max_dir,wind_spd_gust,battery_voltage,lat,long
2021-06-23 00:04:01+00:00,197.0,2.71,202.0,2.92,12.97,47.59359,-54.27349
2021-06-23 00:14:01+00:00,221.0,2.74,221.0,3.45,12.65,47.59359,-54.27349
2021-06-23 00:24:01+00:00,213.0,1.94,227.0,3.05,12.65,47.59359,-54.27349
2021-06-23 00:34:01+00:00,184.0,2.12,186.0,2.29,12.65,47.59359,-54.27349
2021-06-23 00:44:01+00:00,175.0,3.16,176.0,3.41,12.65,47.59359,-54.27349
2021-06-23 00:54:01+00:00,148.0,2.18,148.0,2.73,12.65,47.59359,-54.27349
2021-06-23 01:04:01+00:00,139.0,1.29,142.0,1.71,12.65,47.59359,-54.27349
2021-06-23 01:14:01+00:00,157.0,1.51,147.0,1.81,12.65,47.59359,-54.27349
2021-06-23 01:24:01+00:00,166.0,1.55,166.0,1.64,12.65,47.59359,-54.27349
2021-06-23 01:34:01+00:00,153.0,1.97,151.0,2.08,12.65,47.59359,-54.27349
2021-06-23 01:44:01+00:00,134.0,2.51,130.0,2.93,12.65,47.59359,-54.27349
2021-06-23 01:54:01+00:00,141.0,3.08,137.0,3.58,12.65,47.59359,-54.27349
2021-06-23 02:04:01+00:00,129.0,1.9,123.0,2.32,12.65,47.59359,-54.27349
2021-06-23 02:14:00+00:00,113.0,1.06,116.0,1.32,12.57,47.59359,-54.27349
2021-06-23 02:24:00+00:00,48.0,0.67,43.0,0.86,12.57,47.59359,-54.27349
2021-06-23 02:34:00+00:00,45.0,2.3,48.0,2.57,12.57,47.59359,-54.27349
2021-06-23 02:44:00+00:00,43.0,2.16,45.0,2.3,12.57,47.59359,-54.27349
2021-06-23 02:54:00+00:00,41.0,1.82,42.0,1.9,12.57,47.59359,-54.27349
2021-06-23 03:04:00+00:00,348.0,0.56,343.0,0.61,12.57,47.59359,-54.27349
2021-06-23 03:14:01+00:00,69.0,1.01,68.0,1.09,12.57,47.59359,-54.27349
2021-06-23 03:24:01+00:00,32.0,0.92,69.0,2.26,12.57,47.59359,-54.27349
2021-06-23 03:34:01+00:00,60.0,1.18,56.0,1.54,12.57,47.59359,-54.27349
2021-06-23 03:44:01+00:00,338.0,1.01,294.0,2.29,12.57,47.59359,-54.27349
2021-06-23 03:54:01+00:00,318.0,1.79,308.0,2.22,12.57,47.59359,-54.27349
2021-06-23 04:04:01+00:00,328.0,1.82,318.0,2.12,12.57,47.59359,-54.27349
2021-06-23 04:14:00+00:00,349.0,1.75,40.0,2.29,12.49,47.59359,-54.27349
2021-06-23 04:24:00+00:00,53.0,1.78,61.0,2.57,12.49,47.59359,-54.27349
2021-06-23 04:34:00+00:00,50.0,2.96,54.0,3.59,12.49,47.59359,-54.27349
2021-06-23 04:44:00+00:00,51.0,3.57,52.0,3.8,12.49,47.59359,-54.27349
2021-06-23 04:54:00+00:00,35.0,2.99,40.0,3.29,12.49,47.59359,-54.27349
2021-06-23 05:04:00+00:00,31.0,3.15,29.0,3.48,12.49,47.59359,-54.27349
2021-06-23 05:14:00+00:00,337.0,3.25,337.0,3.61,12.49,47.59359,-54.27349
2021-06-23 05:24:00+00:00,331.0,2.95,325.0,3.35,12.49,47.59359,-54.27349
2021-06-23 05:34:00+00:00,8.0,2.48,13.0,3.2,12.49,47.59359,-54.27349
2021-06-23 05:44:00+00:00,1.0,2.19,331.0,2.73,12.49,47.59359,-54.27349
2021-06-23 05:54:00+00:00,336.0,2.98,331.0,3.99,12.49,47.59359,-54.27349
2021-06-23 06:04:00+00:00,13.0,2.35,48.0,4.7,12.49,47.59359,-54.27349
2021-06-23 06:14:01+00:00,331.0,1.22,69.0,3.71,12.41,47.59359,-54.27349
2021-06-23 06:24:01+00:00,124.0,1.45,140.0,2.26,12.41,47.59359,-54.27349
2021-06-23 06:34:01+00:00,38.0,0.42,63.0,0.71,12.41,47.59359,-54.27349
2021-06-23 06:44:01+00:00,321.0,0.66,328.0,0.99,12.41,47.59359,-54.27349
2021-06-23 06:54:01+00:00,332.0,0.62,340.0,0.84,12.41,47.59359,-54.27349
2021-06-23 07:04:01+00:00,16.0,1.84,317.0,2.79,12.41,47.59359,-54.27349
2021-06-23 07:14:01+00:00,32.0,2.43,39.0,3.16,12.41,47.59359,-54.27349
2021-06-23 07:24:01+00:00,8.0,2.14,6.0,2.52,12.41,47.59359,-54.27349
2021-06-23 07:34:01+00:00,28.0,1.52,34.0,2.19,12.41,47.59359,-54.27349
2021-06-23 07:44:01+00:00,154.0,3.56,154.0,4.65,12.41,47.59359,-54.27349
2021-06-23 07:54:01+00:00,155.0,6.87,153.0,7.6,12.41,47.59359,-54.27349
2021-06-23 08:04:01+00:00,152.0,5.39,152.0,5.78,12.41,47.59359,-54.27349
2021-06-23 08:14:00+00:00,155.0,5.53,158.0,6.13,12.41,47.59359,-54.27349
2021-06-23 08:24:00+00:00,157.0,3.22,149.0,4.11,12.41,47.59359,-54.27349
2021-06-23 08:34:00+00:00,162.0,6.55,152.0,7.93,12.41,47.59359,-54.27349
2021-06-23 08:44:00+00:00,161.0,8.05,160.0,9.19,12.41,47.59359,-54.27349
2021-06-23 08:54:00+00:00,161.0,7.7,156.0,9.05,12.41,47.59359,-54.27349
2021-06-23 09:04:00+00:00,164.0,7.31,160.0,7.72,12.41,47.59359,-54.27349
2021-06-23 09:14:01+00:00,161.0,7.66,162.0,8.09,12.41,47.59359,-54.27349
2021-06-23 09:24:01+00:00,161.0,6.18,160.0,6.6,12.41,47.59359,-54.27349
2021-06-23 09:34:01+00:00,164.0,7.39,160.0,9.29,12.41,47.59359,-54.27349
2021-06-23 09:44:01+00:00,172.0,7.18,175.0,7.75,12.41,47.59359,-54.27349
2021-06-23 09:54:01+00:00,171.0,5.27,174.0,5.72,12.41,47.59359,-54.27349
2021-06-23 10:04:01+00:00,172.0,6.52,172.0,7.35,12.41,47.59359,-54.27349
2021-06-23 10:14:01+00:00,176.0,7.55,175.0,8.87,12.41,47.59359,-54.27349
2021-06-23 10:24:01+00:00,173.0,7.27,173.0,7.72,12.41,47.59359,-54.27349
2021-06-23 10:34:01+00:00,183.0,6.55,183.0,6.99,12.41,47.59359,-54.27349
2021-06-23 10:44:01+00:00,194.0,6.85,194.0,7.4,12.41,47.59359,-54.27349
2021-06-23 10:54:01+00:00,189.0,6.81,188.0,8.06,12.41,47.59359,-54.27349
2021-06-23 11:04:01+00:00,197.0,6.55,197.0,7.08,12.41,47.59359,-54.27349
2021-06-23 11:14:01+00:00,197.0,6.41,198.0,7.16,13.29,47.59359,-54.27349
2021-06-23 11:24:01+00:00,194.0,5.61,198.0,6.36,13.29,47.59359,-54.27349
2021-06-23 11:34:01+00:00,211.0,7.45,209.0,8.52,13.29,47.59359,-54.27349
2021-06-23 11:44:01+00:00,210.0,8.47,212.0,9.45,13.29,47.59359,-54.27349
2021-06-23 11:54:01+00:00,213.0,8.31,214.0,9.55,13.29,47.59359,-54.27349
2021-06-23 12:04:01+00:00,215.0,7.18,211.0,8.01,13.29,47.59359,-54.27349
2021-06-23 12:14:01+00:00,213.0,7.21,214.0,8.53,13.68,47.59359,-54.27349
2021-06-23 12:24:01+00:00,213.0,7.95,212.0,8.84,13.68,47.59359,-54.27349
2021-06-23 12:34:01+00:00,210.0,7.31,212.0,7.94,13.68,47.59359,-54.27349
2021-06-23 12:44:01+00:00,211.0,6.53,212.0,7.54,13.68,47.59359,-54.27349
2021-06-23 12:54:01+00:00,207.0,6.75,208.0,7.25,13.68,47.59359,-54.27349
2021-06-23 13:04:01+00:00,200.0,6.82,199.0,8.15,13.68,47.59359,-54.27349
2021-06-23 13:14:01+00:00,203.0,7.24,208.0,7.89,14.08,47.59359,-54.27349
2021-06-23 13:24:01+00:00,203.0,7.84,201.0,8.79,14.08,47.59359,-54.27349
2021-06-23 13:34:01+00:00,207.0,7.98,207.0,8.93,14.08,47.59359,-54.27349
2021-06-23 13:44:01+00:00,208.0,7.95,206.0,8.89,14.08,47.59359,-54.27349
2021-06-23 13:54:01+00:00,208.0,7.6,210.0,8.99,14.08,47.59359,-54.27349
2021-06-23 14:04:01+00:00,215.0,7.37,213.0,8.19,14.08,47.59359,-54.27349
2021-06-23 14:14:00+00:00,212.0,8.04,211.0,8.9,14.32,47.59359,-54.27349
2021-06-23 14:24:00+00:00,211.0,7.52,212.0,8.24,14.32,47.59359,-54.27349
2021-06-23 14:34:00+00:00,210.0,8.1,213.0,9.19,14.32,47.59359,-54.27349
2021-06-23 14:44:00+00:00,212.0,7.9,211.0,8.99,14.32,47.59359,-54.27349
2021-06-23 14:54:00+00:00,215.0,9.82,221.0,10.9,14.32,47.59359,-54.27349
2021-06-23 15:04:00+00:00,213.0,11.42,215.0,12.81,14.32,47.59359,-54.27349
2021-06-23 15:14:01+00:00,215.0,10.75,221.0,13.18,13.76,47.59359,-54.27349
2021-06-23 15:24:01+00:00,213.0,10.18,213.0,11.36,13.76,47.59359,-54.27349
2021-06-23 15:34:01+00:00,211.0,9.59,212.0,11.35,13.76,47.59359,-54.27349
2021-06-23 15:44:01+00:00,217.0,8.55,219.0,10.15,13.76,47.59359,-54.27349
2021-06-23 15:54:01+00:00,212.0,9.88,212.0,11.3,13.76,47.59359,-54.27349
2021-06-23 16:04:01+00:00,213.0,9.55,212.0,11.08,13.76,47.59359,-54.27349
2021-06-23 16:14:01+00:00,213.0,9.47,213.0,10.85,13.84,47.59359,-54.27349
2021-06-23 16:24:01+00:00,210.0,10.58,210.0,11.92,13.84,47.59359,-54.27349
2021-06-23 16:34:01+00:00,211.0,9.45,215.0,10.56,13.84,47.59359,-54.27349
2021-06-23 16:44:01+00:00,208.0,10.2,210.0,11.03,13.84,47.59359,-54.27349
2021-06-23 16:54:01+00:00,209.0,9.37,212.0,10.33,13.84,47.59359,-54.27349
2021-06-23 17:04:01+00:00,210.0,9.43,211.0,10.26,13.84,47.59359,-54.27349
2021-06-23 17:14:01+00:00,208.0,8.96,213.0,10.45,14.0,47.59359,-54.27349
2021-06-23 17:24:01+00:00,212.0,9.17,215.0,10.39,14.0,47.59359,-54.27349
2021-06-23 17:34:01+00:00,210.0,9.52,214.0,10.96,14.0,47.59359,-54.27349
2021-06-23 17:44:01+00:00,210.0,9.98,212.0,11.88,14.0,47.59359,-54.27349
2021-06-23 17:54:01+00:00,208.0,9.65,206.0,10.46,14.0,47.59359,-54.27349
2021-06-23 18:04:01+00:00,206.0,10.22,206.0,10.99,14.0,47.59359,-54.27349
2021-06-23 18:14:01+00:00,207.0,9.33,207.0,10.28,13.68,47.59359,-54.27349
2021-06-23 18:24:01+00:00,211.0,9.24,210.0,10.1,13.68,47.59359,-54.27349
2021-06-23 18:34:01+00:00,208.0,8.86,207.0,9.75,13.68,47.59359,-54.27349
2021-06-23 18:44:01+00:00,208.0,8.96,207.0,10.1,13.68,47.59359,-54.27349
2021-06-23 18:54:01+00:00,206.0,8.27,204.0,9.31,13.68,47.59359,-54.27349
2021-06-23 19:04:01+00:00,207.0,9.14,206.0,9.9,13.68,47.59359,-54.27349
2021-06-23 19:14:01+00:00,207.0,9.36,204.0,10.6,13.84,47.59359,-54.27349
2021-06-23 19:24:01+00:00,211.0,9.77,210.0,10.8,13.84,47.59359,-54.27349
2021-06-23 19:34:01+00:00,210.0,10.19,206.0,11.98,13.84,47.59359,-54.27349
2021-06-23 19:44:01+00:00,212.0,10.1,217.0,11.39,13.84,47.59359,-54.27349
2021-06-23 19:54:01+00:00,213.0,9.44,214.0,10.04,13.84,47.59359,-54.27349
2021-06-23 20:04:01+00:00,207.0,9.22,211.0,10.72,13.84,47.59359,-54.27349
2021-06-23 20:14:01+00:00,205.0,9.03,206.0,10.15,13.76,47.59359,-54.27349
2021-06-23 20:24:01+00:00,206.0,8.39,205.0,9.22,13.76,47.59359,-54.27349
2021-06-23 20:34:01+00:00,207.0,7.48,211.0,8.36,13.76,47.59359,-54.27349
2021-06-23 20:44:01+00:00,211.0,9.1,213.0,10.35,13.76,47.59359,-54.27349
2021-06-23 20:54:01+00:00,212.0,9.82,212.0,11.34,13.76,47.59359,-54.27349
2021-06-23 21:04:01+00:00,212.0,9.06,210.0,10.3,13.76,47.59359,-54.27349
2021-06-23 21:14:01+00:00,212.0,8.97,213.0,10.13,13.53,47.59359,-54.27349
2021-06-23 21:24:01+00:00,217.0,9.07,223.0,10.96,13.53,47.59359,-54.27349
2021-06-23 21:34:01+00:00,215.0,10.18,222.0,12.15,13.53,47.59359,-54.27349
2021-06-23 21:44:01+00:00,212.0,11.05,208.0,11.9,13.53,47.59359,-54.27349
2021-06-23 21:54:01+00:00,209.0,9.65,208.0,11.19,13.53,47.59359,-54.27349
2021-06-23 22:04:01+00:00,214.0,9.18,216.0,10.62,13.53,47.59359,-54.27349
2021-06-23 22:14:01+00:00,215.0,8.07,215.0,9.77,13.21,47.59359,-54.27349
2021-06-23 22:24:01+00:00,208.0,7.49,211.0,8.54,13.21,47.59359,-54.27349
2021-06-23 22:34:01+00:00,205.0,7.45,205.0,8.21,13.21,47.59359,-54.27349
2021-06-23 22:44:01+00:00,204.0,6.37,207.0,7.4,13.21,47.59359,-54.27349
2021-06-23 22:54:01+00:00,195.0,6.39,193.0,7.76,13.21,47.59359,-54.27349
2021-06-23 23:04:01+00:00,198.0,5.79,195.0,6.97,13.21,47.59359,-54.27349
2021-06-23 23:14:01+00:00,209.0,6.65,212.0,7.43,12.73,47.59359,-54.27349
2021-06-23 23:24:01+00:00,206.0,7.87,209.0,9.42,12.73,47.59359,-54.27349
2021-06-23 23:34:01+00:00,201.0,7.53,201.0,8.13,12.73,47.59359,-54.27349
2021-06-23 23:44:01+00:00,193.0,6.9,194.0,7.71,12.73,47.59359,-54.27349
2021-06-23 23:54:01+00:00,194.0,7.06,199.0,8.05,12.73,47.59359,-54.27349
